Zurück zum Katalog

STARLINK-5334

AktivKommunikationVLEO
NORAD 56509·PAYLOAD·🇺🇸 United States

Gestartet May 14, 2023 von Cape Canaveral Space Force Station

Loading…

Nächste Überflüge (nächste 24 Stunden)

TLE

AktuellSource: CelesTrak SupGP

Epoche: Sep 14, 2026, 20:48 UTC

1 56509C 23065G   26257.86715278  .00031005  00000+0  11231-2 0  2572
2 56509  42.9994 223.8720 0001170 252.5997 146.1266 15.27560607    12

Verfolge STARLINK-5334 in Echtzeit mit AllMySat

Download on the App Store